Location: T. Spence Memorial Observatory
(32.7356°N, 82.2098°W)
Time: 23:20:46
(UTC-04:00)

Cosmos 2219 - Visible Passes

Search period start: 03 July 2015 00:00
Search period end: 13 July 2015 00:00
Orbit: 835 x 859 km, 71.1° (Epoch: 03 July)

Date Brightness Start Highest point End Pass type
(mag) Time Alt. Az. Time Alt. Az. Time Alt. Az.
03 Jul 4.6 01:12:15 31° WNW 01:12:15 31° WNW 01:16:55 10° N visible
03 Jul 4.7 23:16:43 22° ENE 23:16:43 22° ENE 23:19:14 10° NE visible
04 Jul 4.5 00:58:36 32° WNW 00:58:36 32° WNW 01:03:32 10° N visible
04 Jul 4.6 23:02:59 22° ENE 23:02:59 22° ENE 23:05:47 10° NE visible
05 Jul 4.5 00:44:51 32° WNW 00:45:09 33° WNW 00:50:08 10° N visible
05 Jul 4.5 22:49:10 23° ENE 22:49:10 23° ENE 22:52:20 10° NE visible
06 Jul 4.5 00:31:01 32° WNW 00:31:43 33° WNW 00:36:45 10° N visible
06 Jul 4.3 22:35:13 24° E 22:35:13 24° E 22:38:52 10° NE visible
07 Jul 4.5 00:17:04 31° W 00:18:18 34° WNW 00:23:21 10° N visible
07 Jul 4.2 22:21:06 25° E 22:21:06 25° E 22:25:24 10° NE visible
08 Jul 4.5 00:02:57 28° WSW 00:04:52 35° WNW 00:09:57 10° N visible
08 Jul 4.2 22:06:48 23° ESE 22:07:27 24° ESE 22:11:56 10° NE visible
08 Jul 4.5 23:48:37 23° WSW 23:51:26 36° WNW 23:56:33 10° N visible
09 Jul 4.3 21:52:10 19° SE 21:54:02 23° ESE 21:58:28 10° NE visible
09 Jul 4.5 23:33:57 16° SW 23:38:00 37° WNW 23:43:09 10° N visible
10 Jul 4.3 21:37:02 12° SSE 21:40:37 23° ESE 21:45:00 10° NE visible
10 Jul 4.5 23:19:22 10° SW 23:24:34 38° WNW 23:29:45 10° N visible
11 Jul 4.3 21:23:05 10° SSE 21:27:12 22° ESE 21:31:32 10° NE visible
11 Jul 4.4 23:05:55 10° SW 23:11:08 39° WNW 23:16:21 10° N visible
12 Jul 4.3 21:09:44 10° SSE 21:13:48 22° ESE 21:18:03 10° NE visible
12 Jul 4.4 22:52:27 10° SW 22:57:42 40° WNW 23:02:57 10° N visible
